Location: Madrid
(40.4000°N, 3.6830°W)
Time: 13:55:44
(UTC+01:00)

ISS - Pass Details

Date: 16 December 2017
Orbit: 402 x 406 km, 51.6° (Epoch: 16 December)

Event Time Altitude Azimuth Distance (km) Brightness Sun altitude
Rises 18:36:45 0° 306° (NW) 2,329 0.5 -8.9°
Reaches altitude 10° 18:38:50 10° 305° (NW) 1,466 -0.5 -9.2°
Maximum altitude 18:42:07 81° 219° (SW) 414 -3.7 -9.8°
Drops below altitude 10° 18:45:23 10° 131° (SE) 1,455 -1.3 -10.4°
Sets 18:47:27 0° 130° (SE) 2,310 -0.3 -10.7°
